Regional Weather Roundup
Issued by NWS

Home | Current Version | Previous Version | Graphics & Text | Print | Product List | Glossary On
Versions: 1 2 3 4 5 6 7 8 9 10 11 12 13 14 15 16 17 18 19 20 21 22 23 24 25 26 27 28 29 30 31 32 33 34 35 36 37 38 39 40 41 42 43 44 45 46 47 48 49 50
000
ASUS43 KLOT 121658
RWRIL

ILLINOIS REGIONAL WEATHER ROUNDUP
NATIONAL WEATHER SERVICE CHICAGO/ROMEOVILLE IL
1200 PM CDT SAT JUL 12 2014

NOTE: "FAIR" INDICATES FEW OR NO CLOUDS BELOW 12,000 FEET WITH NO
SIGNIFICANT WEATHER AND/OR OBSTRUCTIONS TO VISIBILITY.

* THESE STATIONS ARE NOT UNDER NWS QUALITY CONTROL. THEY ALSO MAY NOT
  REPORT WEATHER SUCH AS PRECIPITATION OR FOG.

ILZ001-002-007-009-015-016-024-121800-
NORTHWEST ILLINOIS

CITY           SKY/WX    TMP DP  RH WIND       PRES   REMARKS
MOLINE         PTSUNNY   80  71  74 SW5       30.02S HX  84
$$

ILZ003-004-008-010-011-017-018-121800-
NORTH CENTRAL ILLINOIS

CITY           SKY/WX    TMP DP  RH WIND       PRES   REMARKS
ROCKFORD       CLOUDY    75  70  84 S9        30.05R HAZE
$$

ILZ005-006-012>014-019>023-121800-
NORTHEAST ILLINOIS

CITY           SKY/WX    TMP DP  RH WIND       PRES   REMARKS
CHICAGO-OHARE  CLOUDY    73  68  84 S16       30.01F
CHICAGO-MIDWAY CLOUDY    74  71  91 S12G20    30.02F
AURORA         CLOUDY    74  70  87 S15       30.05R
WAUKEGAN       CLOUDY    74  70  87 SW10      30.00F
DUPAGE AIRPORT   N/A     74  71  91 MISG      30.03F
WHEELING       CLOUDY    74  71  91 S9        30.01F
NORTHERLY ISL    N/A     71  68  90 S14         N/A
$$

LMZ740>746-121800-
SOUTHERN LAKE MICHIGAN

STATION/POSITION SKY/WX   TEMP    WIND        PRES    VSBY  WAVE
                          AIR SEA DIR/SP/G                  HT/PER
                          (F)     (DEG/KT/KT) (MB)    (MI)  (FT/S)
SOUTHERN BUOY              63 63  140/  6/  8 1017.5R         1/ 3
WAUKEGAN HARBOR            70     180/ 13/ 14 1017.9R
HARRISON CRIB              70     180/ 21/ 25   N/A
BURNHAM HARBOR             71     200/ 12/ 16   N/A
CALUMET HARBOR             70     210/  9/ 14 1018.4F
BURNS HARBOR               70     220/  9/ 20 1019.3
MICHIGAN CITY              70     160/ 10/ 16   N/A
$$

ILZ025>027-034>036-040-047-049-050-058-095>099-121800-
WEST-CENTRAL ILLINOIS

CITY           SKY/WX    TMP DP  RH WIND       PRES   REMARKS
$$

ILZ028>032-037-038-041>044-048-051>054-059>061-121800-
CENTRAL ILLINOIS

CITY           SKY/WX    TMP DP  RH WIND       PRES   REMARKS
DECATUR        CLOUDY    81  73  78 SE8       30.10F HX  85
PEORIA         NOT AVBL
SPRINGFIELD    PTSUNNY   88  75  65 SW7       30.07F HX  97
TAYLORVILLE    NOT AVBL
$$

ILZ033-039-045-046-055>057-062-063-121800-
EAST-CENTRAL ILLINOIS

CITY           SKY/WX    TMP DP  RH WIND       PRES   REMARKS
CHAMPAIGN      CLOUDY    75  71  87 SE12      30.12F
MATTOON        CLOUDY    75  73  93 S9        30.13S
$$

ILZ079-100>102-121800-
SOUTHWEST ILLINOIS

CITY           SKY/WX    TMP DP  RH WIND       PRES   REMARKS
ALTON          PTSUNNY   84  77  79 S9        30.11R HX  94
CAHOKIA*       MOSUNNY   88  74  63 VRB3      30.09F HX  96
$$

ILZ064>066-069>071-074>076-080>082-084>086-088>090-092>094-121800-
SOUTH-CENTRAL ILLINOIS

CITY           SKY/WX    TMP DP  RH WIND       PRES   REMARKS
CARBONDALE     MOSUNNY   88  74  63 SW8       30.12S HX  96
MARION         PTSUNNY   88  77  70 S12       30.14R HX 100
$$

ILZ067-068-072-073-078-083-087-091-121800-
SOUTHEAST ILLINOIS

CITY           SKY/WX    TMP DP  RH WIND       PRES   REMARKS
$$

ABBREVIATIONS USED IN REMARKS
   TC - TEMPERATURE IN CELSIUS
  WCI - WIND CHILL INDEX
   HX - HEAT INDEX
  VSB - VISIBILITY
$$



USA.gov is the U.S. government's official web portal to all federal, state and local government web resources and services.